Powrót do katalogu

THOR ABLESTAR DEB

AktywnyVLEO
NORAD 660·DEBRIS·🇺🇸 United States

Wystrzelony Jun 29, 1961 z Cape Canaveral Space Force Station

Loading…

Następne Przeloty (najbliższe 24 godziny)

TLE

ŚwieżeSource: Space-Track

Epoka: Sep 14, 2026, 09:53 UTC

1 00660U 61015HM  26257.41234694  .00036129  00000-0  13805-2 0  9990
2 00660  66.4829 254.6096 0006700 192.7590 167.3387 15.26429881399021

Śledź THOR ABLESTAR DEB w czasie rzeczywistym z AllMySat

Download on the App Store